Preview of NWS' New Version of Forecast
This preview is not operational and should not be used for support decisions.
Latest weather observations around

Cincinnati, Cincinnati Municipal Airport Lunken Field (KLUK)

Using English Units (Switch to International System of Units)
Date/ Time (EST) Wind (mph) Vis. (mi) Weather Sky Cond. Temp (°F) Rel. Humidity Wind Chill (°F) Heat Index (°F) Pressure Precip. (in)
Air Dwpt 6 hour Altimeter (inHg) Sea level (inHg) 1 hr 3 hr 6 hr
Max Min
Jan 21 22:53 NE 7 10 Clear CLR 12 2     63% 1   30.55 30.57      
Jan 21 21:53 NE 7 10 Clear CLR 12 0     58% 1   30.56 30.59      
Jan 21 20:53 ENE 8 10 Clear CLR 12 0     58% 0   30.57 30.6      
Jan 21 19:53 NE 6 10 Clear CLR 12 -2     53% 3   30.57 30.6      
Jan 21 18:53 ENE 7 10 Clear CLR 13 -3     48% 3   30.59 30.62      
Jan 21 17:53 E 8 10 Clear CLR 15 -3     44% 4   30.58 30.61      
Jan 21 16:53 E 7 10 Clear CLR 17 -1     44% 8   30.57 30.6      
Jan 21 15:53 NNE 7 10 Clear CLR 19 -1     41% 10   30.58 30.61      
Jan 21 14:53 NNW 5 10 Clear CLR 18 -3     39% 11   30.58 30.61      
Jan 21 13:53 N 6 10 Clear CLR 17 -2     42% 9   30.6 30.63      
Jan 21 12:53 N 6 10 Clear CLR 15 -3     44% 6   30.62 30.65      
Jan 21 11:53 N 3 10 Clear CLR 13 -2     51% 7   30.64 30.67      
Jan 21 10:53 ENE 5 10 Clear CLR 9 -2     60% 0   30.65 30.67      
Jan 21 09:53 E 3 10 Clear CLR 6 0     75% -1   30.64 30.67      
Jan 21 08:53 NE 6 10 Clear CLR 3 -1     83% -8   30.6 30.63      
Jan 21 07:53 NNE 3 10 Clear CLR 2 -1     87% -5   30.56 30.59      
Jan 21 06:53 Calm 10 Clear CLR 2 -1     87%     30.53 30.55      
Jan 21 05:53 NNE 3 10 Clear CLR 3 -1     83% -4   30.5 30.53      
Jan 21 04:53 NE 5 10 Clear CLR 3 -1     83% -7   30.47 30.5      
Jan 21 03:53 Calm 10 Clear CLR 6 1     79%     30.47 30.49      
Jan 21 02:53 NE 3 10 Clear CLR 6 2     83% -1   30.45 30.48      
Jan 21 01:53 NE 7 10 Partly Cloudy SCT046 6 1     79% -6   30.44 30.47      
Jan 21 00:53 NW 7 10 Mostly Cloudy BKN048 11 1     64% 0   30.44 30.47      
Jan 20 23:53 WNW 3 10 Clear CLR 11 1     64% 5   30.42 30.45      
Jan 20 22:53 WNW 6 10 Cloudy OVC050 13 1     58% 4   30.42 30.45      
Jan 20 21:53 NW 6 10 Cloudy OVC050 13 0     55% 4   30.4 30.42      
Jan 20 20:53 WNW 3 10 Clear CLR 12 0     58% 6   30.38 30.41      
Jan 20 19:53 NW 6 10 Clear CLR 12 -1     55% 3   30.37 30.4      
Jan 20 18:53 NW 5 10 Clear CLR 12 -2     53% 4   30.36 30.38      
Jan 20 17:53 N 5 10 Clear CLR 13 -3     48% 5   30.34 30.36      
Jan 20 16:53   10 Clear CLR 15 -3     44%     30.31 30.33      
Jan 20 15:53 N 14 10 Clear CLR 16 -2     44% 2   30.28 30.31      
Jan 20 14:53   10 Clear CLR 17 -1     44%     30.24 30.26      
Jan 20 13:53 N 13 10 Clear CLR 17 0     46% 4   30.22 30.24      
Jan 20 12:53 N 15 10 Clear CLR 16 2     53% 1   30.22 30.24 0   0
Jan 20 11:53 NNW 13 10 Mostly Clear FEW025 15 4     61% 1   30.23 30.24      
Jan 20 10:53   10 Partly Cloudy SCT022 13 3     64%     30.22 30.24      
Jan 20 10:20 N 14 10 Partly Cloudy SCT022 13 3     64% -2   30.21        
Jan 20 09:53 NNW 17 9 Mostly Cloudy BKN022 12 3     67% -5   30.2 30.22   0  
Jan 20 08:53 NNW 15 10 Mostly Cloudy BKN023 12 3     67% -4   30.16 30.18 0    
Jan 20 07:53 N 13 10 Cloudy OVC023 14 6     70% 0   30.11 30.12 0    
Jan 20 06:53 NNW 11 5 Light Snow OVC021 16 9     73% 3   30.07 30.09 0   0
Jan 20 05:53 NNW 20 6 Light Snow OVC021 17 9     70% 1   30.01 30.03 0    
Jan 20 04:53 NNW 17 7 Cloudy OVC021 19 11     70% 4   29.96 29.97      
Jan 20 03:53 NNW 18 9 Cloudy OVC020 19 12     74% 4   29.89 29.9   0  
Jan 20 02:53 NNW 20 5 Haze OVC021 20 14     77% 4   29.85 29.86 0    
Jan 20 02:40 NNW 14 3 Haze SCT012 BKN017 OVC025 20 15     81% 7   29.84   0    
Jan 20 02:34 NNW 16 1.75 Haze BKN012 BKN017 OVC025 20 15     81% 6   29.83   0    
Jan 20 02:13 N 13 0.75 Fog/Mist BKN010 OVC017 20 16     84% 7   29.82   0    
Jan 20 01:53 N 16 1 Light Snow and Fog/Mist VV012 21 17     84% 7   29.8 29.81 0    
Jan 20 01:41 N 18 0.75 Light Snow and Fog/Mist VV013 21 17     84% 6       0    
Jan 20 01:15 N 16 1.25 Light Snow OVC012 22 17     81% 8   29.75   0    
Jan 20 00:53 N 15 0.5 Fog VV006 22 18     84% 9   29.73 29.74 0   0
Jan 20 00:45   0.25 Fog VV005 22 19     88%     29.71   0    
Jan 20 00:30 N 16 0.25 Fog VV004 22 19     88% 8   29.71   0    
Jan 19 23:58 N 15 0.25 Heavy Snow and Fog VV009 23 20     88% 10   29.7   0    
Jan 19 23:53   0.5 Snow and Fog VV011 23 20     88%     29.69 29.7 0    
Jan 19 23:51   0.5 Snow and Fog VV012 25 19     80%     29.69   0    
Jan 19 23:31   1 Light Snow and Fog/Mist VV013 24 20     84%     29.67   0    
Jan 19 23:20   0.75 Light Snow and Fog/Mist BKN013 OVC018 25 21     85%     29.67   0    
Jan 19 22:53 N 15 1.25 Light Snow and Fog/Mist BKN016 OVC023 26 22     84% 14   29.66 29.67 0    
Jan 19 22:40   1.25 Light Snow and Fog/Mist SCT018 OVC023 26 22     84%     29.65   0    
Jan 19 22:17   2.5 Light Snow and Fog/Mist BKN019 OVC032 27 22     81%     29.64   0    
Jan 19 21:53   7 Cloudy BKN017 OVC031 28 23     81%     29.61 29.62 0 0  
Jan 19 21:23   4 Light Freezing Rain and Fog/Mist OVC014 31 27     85%     29.6   0    
Jan 19 21:03 N 18 6 Light Rain and Fog/Mist BKN014 OVC020 33 29     85% 22   29.59   0    
Jan 19 20:53   5 and Fog/Mist OVC011 33 30     88%     29.57 29.58 0    
Jan 19 20:50 N 18 5 and Rain and Fog/Mist OVC011 34 30     86% 23   29.58   0    
Jan 19 19:53 N 14 4 Light Rain and Fog/Mist OVC009 34 31     88% 25   29.58 29.59 0    
Jan 19 18:53 NNE 11 8 Cloudy OVC009 35 32     88% 27   29.53 29.54 0   0
Jan 19 18:01 NNE 14 5 Light Rain and Fog/Mist OVC009 36 33     89% 27   29.58   0    
Jan 19 17:53 NNE 11 5 Light Rain and Fog/Mist OVC009 36 33     89% 28   29.57 29.57 0    
Jan 19 17:34   3 Rain and Fog/Mist OVC009 36 33     89%     29.58   0    
Jan 19 16:53 NNE 16 2 Light Rain and Fog/Mist OVC008 37 34     89% 28   29.57 29.57 0    
Jan 19 15:53 NNE 11 2 Light Rain and Fog/Mist OVC007 38 36     92% 30   29.57 29.57 0 0  
Jan 19 14:53 NNE 10 2 Light Rain and Fog/Mist OVC006 39 37     93% 32   29.57 29.57 0    
Jan 19 14:30 NNE 9 3 Light Rain and Fog/Mist OVC004 40 38     93% 34   29.59   0    
Jan 19 13:53 NNE 7 3 Light Rain and Fog/Mist OVC008 41 39     93% 36   29.61 29.62 0    
Jan 19 12:53 NE 9 2 Light Rain and Fog/Mist OVC007 39 38     96% 33   29.66 29.66 0   1
Jan 19 11:53 NNE 7 3 Light Rain and Fog/Mist OVC008 39 37     93% 34   29.73 29.74 0    
Jan 19 11:32 N 6 2 Rain and Fog/Mist OVC008 39 37     93% 35   29.75   0    
Jan 19 10:53 NE 5 3 Light Rain and Fog/Mist OVC008 39 36     89% 36   29.76 29.77 0    
Jan 19 10:04 ENE 6 2.5 Light Rain and Fog/Mist OVC009 37 35     92% 32   29.78   0    
Jan 19 09:53 6 3 Light Rain and Fog/Mist BKN009 OVC023 37 35     92% 32   29.79 29.8 0 0  
Jan 19 08:53 NNE 10 2 Rain and Fog/Mist BKN009 OVC025 35 34     96% 27   29.84 29.85 0    
Jan 19 08:23 NE 8 3 Rain and Fog/Mist SCT009 BKN027 OVC047 36 33     89% 30   29.85   0    
Jan 19 07:53 NE 8 4 Rain and Fog/Mist SCT032 OVC045 36 33     89% 30   29.87 29.87 0    
Jan 19 06:53 ENE 7 10 Cloudy FEW039 BKN065 OVC090 37 31     78% 32   29.88 29.89      
Jan 19 05:53 NE 5 10 Cloudy FEW045 OVC055 37 31     78% 33   29.94 29.95      
Jan 19 04:53 ENE 7 10 Cloudy OVC045 36 31     82% 30   29.95 29.96      
Jan 19 03:53 NNE 7 10 Cloudy SCT034 OVC043 37 31     78% 32   30.01 30.01      
Jan 19 03:38 NE 6 10 Cloudy BKN031 OVC044 37 31     78% 32   30.02        
Jan 19 02:53 NE 3 10 Cloudy FEW017 BKN027 OVC038 37 31     78% 35   30.02 30.03      
Jan 19 02:39 3 10 Cloudy SCT027 OVC038 37 31     78% 35   30.01        
Jan 19 01:53 ENE 9 10 Cloudy OVC024 36 31     82% 29   30 30.01      
Jan 19 00:53 E 5 10 Cloudy OVC025 36 31     82% 32   30.03 30.04      
Jan 18 23:53 ENE 6 10 Cloudy OVC025 36 31     82% 31   30.09 30.1      
May 14 18:53 SW 11 10 Mostly Clear FEW070 85 65     51%   87 29.88 29.86      
Notice The following observation data may not be complete
May 14 05:19 Calm 1.75 Fog/Mist CLR   65      %     30        
May 12 20:53 Calm 10 Clear CLR 76 67     74%   77 30 29.98      
Notice The following observation data may not be complete
May 12 00:53 WSW 5 10 Clear CLR   62      %     29.99 29.98      
May 11 16:53   10 Mostly Clear FEW075 85 61     45%   85 29.92 29.91      
Jun 11 12:53   10 Mostly Clear FEW060 86 64     48%   87 30.12 30.11      
Jun 10 18:53 S 14 10 Clear CLR 82 62     51%   83 29.99 29.97      
Jun 10 15:53 SSW 14 10 Clear CLR 84 62     48%   85 30.01 30      
Jun 10 14:53 SSW 10 10 Clear CLR 83 58     43%   83 30.02 30.01      
Jun 10 11:53 SSW 11 10 Clear CLR 80 61     52%   81 30.05 30.04      
Notice The following observation data may not be complete
Jun 09 06:24 Calm 0.75 Fog/Mist CLR   49      %     29.93        
Jun 08 05:14 Calm 4 Fog/Mist CLR 50 50     100%     30.02        
Jun 07 12:53 NE 9 10 Clear   64 54     70%     30.03 30.02      
Jun 05 17:37 SSW 6 10 Clear CLR 68 65     90%     29.73   0